FW7644 Weather Reports


Display with metric or nautical units.
time (UTC)temp
F
wind
direction
speed
MPH
gust
MPH
rain 1hr
in
rain 24hr
in
rain mn
in
humidity
%
barometer
mb
20260509132307 62 0.0 0.0 0.18 1.55 0.53 99 1016.6
20260509131805 62 0.0 0.0 0.20 1.54 0.52 99 1016.7
20260509131303 61 0.0 0.0 0.19 1.53 0.51 99 1016.9
20260509130801 61 0.0 0.0 0.22 1.52 0.50 99 1017.0
20260509130259 61 0.0 0.0 0.21 1.51 0.49 99 1016.8
20260509125757 61 0.0 0.0 0.25 1.51 0.49 99 1016.7
20260509125255 60 0.0 0.0 0.25 1.51 0.49 99 1016.6
20260509124753 60 0.0 0.0 0.26 1.49 0.47 99 1016.6
20260509124252 60 0.0 0.0 0.24 1.47 0.45 99 1016.9
20260509123750 60 0.0 0.0 0.25 1.45 0.43 99 1017.3
20260509123248 59 0.0 0.0 0.23 1.43 0.41 99 1017.2
20260509122746 59 0.0 0.0 0.22 1.40 0.38 99 1017.1
20260509122244 58 0.0 0.0 0.21 1.39 0.37 99 1017.1
20260509121742 57 0.0 0.0 0.20 1.37 0.35 99 1017.2
20260509121240 57 0.0 0.0 0.18 1.35 0.33 99 1017.2
20260509120738 57 0.0 0.0 0.18 1.33 0.31 99 1017.0
20260509120236 57 0.0 0.0 0.16 1.31 0.30 99 1017.0
20260509115734 57 0.0 0.0 0.16 1.29 0.28 99 1016.9
20260509115232 57 0.0 0.0 0.14 1.27 0.26 99 1016.8
20260509114730 56 0.0 0.0 0.13 1.25 0.24 99 1016.6
20260509114228 56 0.0 0.0 0.12 1.24 0.23 99 1016.5
20260509113726 56 0.0 0.0 0.10 1.22 0.21 99 1016.4
20260509113224 56 0.0 0.0 0.09 1.21 0.20 99 1016.5
20260509112722 56 0.0 0.0 0.08 1.19 0.18 99 1016.5
20260509112221 56 0.0 0.0 0.07 1.18 0.17 99 1016.7
20260509111719 56 0.0 0.0 0.07 1.18 0.17 99 1016.6
20260509111217 56 0.0 0.0 0.06 1.17 0.16 99 1016.4
20260509110716 57 0.0 0.0 0.06 1.17 0.16 99 1016.3
20260509110214 57 0.0 0.0 0.05 1.16 0.15 99 1016.5
20260509105713 57 0.0 0.0 0.04 1.15 0.14 99 1016.0
20260509105211 57 0.0 0.0 0.03 1.14 0.13 99 1015.7
20260509104709 57 0.0 0.0 0.02 1.13 0.12 99 1015.6
20260509104207 57 0.0 0.0 0.01 1.12 0.11 99 1015.5
20260509103706 57 0.0 0.0 0.02 1.12 0.11 99 1015.5
20260509103204 57 0.0 0.0 0.02 1.12 0.11 99 1015.6
20260509102702 57 0.0 0.0 0.05 1.12 0.11 99 1015.6
20260509102201 57 0.0 0.0 0.04 1.11 0.10 99 1015.4
20260509101659 57 0.0 0.0 0.07 1.11 0.10 99 1015.2
20260509101157 57 0.0 0.0 0.07 1.11 0.10 99 1015.0
20260509100655 57 0.0 0.0 0.08 1.11 0.10 99 1014.7
20260509100154 57 0.0 0.0 0.08 1.11 0.10 99 1014.6
20260509095652 57 0.0 0.0 0.08 1.11 0.10 99 1014.6
20260509095150 57 0.0 0.0 0.08 1.11 0.10 99 1014.5
20260509094649 57 0.0 0.0 0.08 1.11 0.10 99 1014.6
20260509094147 56 0.0 0.0 0.08 1.11 0.10 99 1014.7
20260509093645 57 0.0 0.0 0.08 1.11 0.10 99 1014.9
20260509093143 56 0.0 0.0 0.07 1.10 0.09 99 1014.9
20260509092642 56 0.0 0.0 0.06 1.09 0.08 99 1014.9
20260509092140 57 0.0 0.0 0.04 1.07 0.06 99 1015.0
20260509091638 57 0.0 0.0 0.02 1.05 0.04 99 1014.9
20260509091137 56 0.0 0.0 0.01 1.04 0.03 99 1014.9
20260509090635 56 0.0 0.0 0.01 1.04 0.03 99 1015.0
20260509090133 57 0.0 0.0 0.00 1.03 0.02 99 1014.9
20260509085632 57 0.0 0.0 0.00 1.03 0.02 99 1014.9
20260509085130 57 0.0 0.0 0.00 1.03 0.02 99 1014.8
20260509084628 57 0.0 0.0 0.00 1.03 0.02 99 1014.7
20260509084127 57 0.0 0.0 0.00 1.03 0.02 99 1014.5
20260509083625 57 0.0 0.0 0.00 1.03 0.02 99 1014.5
20260509083123 57 0.0 0.0 0.00 1.03 0.02 99 1014.4
20260509082622 57 0.0 0.0 0.00 1.03 0.02 99 1014.3
20260509082120 57 0.0 0.0 0.00 1.03 0.02 99 1014.3
20260509081618 57 0.0 0.0 0.00 1.03 0.02 99 1014.3
20260509081117 57 0.0 0.0 0.00 1.03 0.02 99 1014.2
20260509080615 58 0.0 0.0 0.00 1.03 0.02 99 1014.2
20260509080113 58 0.0 0.0 0.00 1.03 0.02 99 1014.1
20260509075611 60 0.0 0.0 0.00 1.03 0.02 99 1014.1
20260509075110 61 0.0 0.0 0.00 1.03 0.02 99 1013.9
20260509074608 61 0.0 0.0 0.00 1.03 0.02 99 1013.8
20260509074106 61 0.0 0.0 0.00 1.03 0.02 99 1013.7
20260509073604 61 0.0 0.0 0.00 1.03 0.02 99 1013.6
20260509073103 61 0.0 0.0 0.00 1.03 0.02 99 1013.5
20260509072601 61 0.0 0.0 0.00 1.03 0.02 99 1013.5
20260509072100 61 0.0 0.0 0.00 1.03 0.02 99 1013.5
20260509071558 61 0.0 0.0 0.00 1.03 0.02 99 1013.5
20260509071057 61 0.0 0.0 0.00 1.03 0.02 99 1013.5
20260509070556 61 0.0 0.0 0.00 1.03 0.02 99 1013.5
20260509070053 61 0.0 0.0 0.00 1.03 0.02 99 1013.5
20260509065551 61 0.0 0.0 0.00 1.03 0.02 99 1013.5
20260509065050 61 0.0 0.0 0.00 1.03 0.02 99 1013.5
20260509064548 61 0.0 0.0 0.00 1.03 0.02 99 1013.6
20260509064046 61 0.0 0.0 0.00 1.03 0.02 99 1013.6
20260509063544 61 0.0 0.0 0.00 1.03 0.02 99 1013.5
20260509063043 61 0.0 0.0 0.00 1.03 0.02 99 1013.4
20260509062541 61 0.0 0.0 0.00 1.03 0.02 99 1013.4
20260509062039 61 0.0 0.0 0.00 1.03 0.02 99 1013.4
20260509061537 61 0.0 0.0 0.00 1.03 0.02 99 1013.5
20260509061036 61 0.0 0.0 0.00 1.03 0.02 99 1013.5
20260509060534 61 0.0 0.0 0.00 1.03 0.02 99 1013.4
20260509060033 61 0.0 0.0 0.00 1.03 0.02 99 1013.3
20260509055531 61 0.0 0.0 0.00 1.03 0.02 99 1013.2
20260509055029 61 0.0 0.0 0.00 1.03 0.02 99 1013.2
20260509054527 61 0.0 0.0 0.00 1.03 0.02 99 1013.2
20260509054026 61 0.0 0.0 0.00 1.03 0.02 99 1013.2
20260509053524 61 0.0 0.0 0.00 1.03 0.02 99 1013.1
20260509053023 61 0.0 0.0 0.00 1.03 0.02 99 1013.1
20260509052521 61 0.0 0.0 0.00 1.03 0.02 99 1013.2
20260509052019 61 0.0 0.0 0.00 1.03 0.02 99 1013.4
20260509051517 61 0.0 0.0 0.00 1.03 0.02 99 1013.4
20260509051016 61 0.0 0.0 0.00 1.03 0.02 99 1013.4
20260509050514 61 0.0 0.0 0.00 1.03 0.02 99 1013.4
20260509050012 61 0.0 0.0 0.00 1.03 0.02 99 1013.5
20260509045510 61 0.0 0.0 0.00 1.03 0.02 99 1013.7
20260509045008 61 0.0 0.0 0.00 1.03 0.02 99 1013.8
20260509044506 61 0.0 0.0 0.00 1.03 0.02 99 1013.8
20260509044005 61 0.0 0.0 0.00 1.03 0.02 99 1013.8
20260509043503 61 0.0 0.0 0.01 1.03 0.02 99 1013.8
20260509043001 61 0.0 0.0 0.01 1.03 0.02 99 1013.9
20260509042500 61 0.0 0.0 0.02 1.03 0.02 99 1013.9
20260509041958 60 0.0 0.0 0.02 1.03 0.02 99 1013.9
20260509041456 60 0.0 0.0 0.02 1.03 0.02 99 1013.9
20260509040955 60 0.0 0.0 0.02 1.03 0.02 99 1013.9
20260509040453 60 0.0 0.0 0.02 1.03 0.02 99 1014.0
20260509035951 60 0.0 0.0 0.04 1.03 0.02 99 1013.9
20260509035449 60 0.0 0.0 0.04 1.03 0.02 99 1013.8
20260509034948 60 0.0 0.0 0.04 1.03 0.02 99 1013.9
20260509034446 60 0.0 0.0 0.04 1.03 0.02 99 1013.9
20260509033944 60 0.0 0.0 0.05 1.03 0.02 99 1013.9
20260509033442 60 0.0 0.0 0.05 1.03 0.02 99 1013.9
20260509032941 60 0.0 0.0 0.11 1.02 0.01 99 1014.0
20260509032440 60 0.0 0.0 0.10 1.01 0.00 99 1014.1
20260509031937 60 0.0 0.0 0.14 1.01 0.00 99 1014.1
20260509031436 60 0.0 0.0 0.14 1.01 0.00 99 1014.1
20260509030934 60 0.0 0.0 0.18 1.01 0.00 99 1014.2
20260509030433 60 0.0 0.0 0.18 1.01 0.00 99 1014.2
20260509025931 60 0.0 0.0 0.22 1.01 1.01 99 1014.2
20260509025429 60 0.0 0.0 0.22 1.01 1.01 99 1014.1
20260509024928 60 0.0 0.0 0.27 0.99 0.99 99 1014.1
20260509024426 60 0.0 0.0 0.27 0.99 0.99 99 1014.1
20260509023924 60 0.0 0.0 0.33 0.99 0.99 99 1014.1
20260509023423 60 0.0 0.0 0.32 0.98 0.98 99 1014.2
20260509022921 60 0.0 0.0 0.35 0.97 0.97 99 1014.1
20260509022420 60 0.0 0.0 0.31 0.94 0.94 99 1014.2
20260509021918 60 0.0 0.0 0.33 0.92 0.92 99 1014.1
20260509021416 60 0.0 0.0 0.32 0.91 0.91 99 1014.2
20260509020915 60 0.0 0.0 0.33 0.88 0.88 99 1014.4
20260509020413 60 0.0 0.0 0.31 0.86 0.86 99 1014.5
20260509015911 60 0.0 0.0 0.33 0.84 0.84 99 1014.5
20260509015410 60 0.0 0.0 0.31 0.82 0.82 99 1014.5
20260509014908 60 0.0 0.0 0.33 0.80 0.80 99 1014.6
20260509014406 60 0.0 0.0 0.30 0.76 0.76 99 1015.0
20260509013904 60 0.0 0.0 0.28 0.73 0.73 99 1015.1
20260509013402 60 0.0 0.0 0.23 0.68 0.68 99 1015.1
20260509012900 60 0.0 0.0 0.22 0.66 0.66 99 1014.7
20260509012358 60 0.0 0.0 0.20 0.64 0.64 99 1014.5
20260509011856 60 0.0 0.0 0.20 0.62 0.62 99 1014.4
20260509011354 60 0.0 0.0 0.18 0.60 0.60 99 1014.5
20260509010852 60 0.0 0.0 0.18 0.58 0.58 99 1014.5
20260509010350 60 0.0 0.0 0.16 0.56 0.56 99 1014.6
20260509005847 60 0.0 0.0 0.16 0.54 0.54 99 1014.7
20260509005346 60 0.0 0.0 0.14 0.52 0.52 99 1014.6
20260509004844 60 0.0 0.0 0.16 0.50 0.50 99 1014.6
20260509004342 60 0.0 0.0 0.14 0.48 0.48 99 1014.6
20260509003839 60 0.0 0.0 0.14 0.46 0.46 99 1014.5
20260509003337 60 0.0 0.0 0.13 0.45 0.45 99 1014.5
20260509002835 60 0.0 0.0 0.14 0.44 0.44 99 1014.4
20260509002334 60 0.0 0.0 0.14 0.44 0.44 99 1014.5
20260509001831 60 0.0 0.0 0.15 0.44 0.44 99 1014.3
20260509001329 60 0.0 0.0 0.14 0.43 0.43 99 1014.2
20260509000827 60 0.0 0.0 0.15 0.42 0.42 99 1014.1
20260509000326 60 0.0 0.0 0.14 0.41 0.41 99 1014.1
20260508235824 60 0.0 0.0 0.15 0.40 0.40 99 1013.8
20260508235322 60 0.0 0.0 0.13 0.38 0.38 99 1013.8
20260508234821 60 0.0 0.0 0.13 0.37 0.37 99 1013.5
20260508234319 60 0.0 0.0 0.12 0.36 0.36 99 1013.4
20260508233817 60 0.0 0.0 0.10 0.34 0.34 99 1013.1
20260508233315 60 0.0 0.0 0.08 0.32 0.32 99 1012.8
20260508232813 61 0.0 0.0 0.09 0.32 0.32 99 1011.9
20260508232312 61 0.0 0.0 0.08 0.31 0.31 99 1012.3
20260508231810 61 0.0 0.0 0.07 0.31 0.31 99 1012.7
20260508231308 61 0.0 0.0 0.06 0.30 0.30 99 1012.9
20260508230806 61 0.0 0.0 0.06 0.30 0.30 99 1013.2
20260508230304 61 0.0 0.0 0.04 0.28 0.28 99 1013.5
20260508225802 61 0.0 0.0 0.03 0.27 0.27 99 1013.5
20260508225300 61 0.0 0.0 0.03 0.27 0.27 99 1013.5
20260508224758 61 0.0 0.0 0.02 0.26 0.26 99 1013.5
20260508224256 61 0.0 0.0 0.01 0.25 0.25 99 1013.5
20260508223754 61 0.0 0.0 0.01 0.25 0.25 99 1013.5
20260508223252 62 0.0 0.0 0.01 0.25 0.25 99 1013.5
20260508222750 62 0.0 0.0 0.00 0.24 0.24 99 1013.6
20260508222248 62 0.0 0.0 0.00 0.24 0.24 99 1013.6
20260508221746 62 0.0 0.0 0.01 0.24 0.24 99 1013.4
20260508221244 62 0.0 0.0 0.01 0.24 0.24 99 1013.4
20260508220742 61 0.0 0.0 0.02 0.24 0.24 99 1013.3
20260508220241 61 0.0 0.0 0.02 0.24 0.24 99 1013.1
20260508215739 61 0.0 0.0 0.02 0.24 0.24 99 1012.9
20260508215237 61 0.0 0.0 0.02 0.24 0.24 99 1012.2
20260508214735 61 0.0 0.0 0.02 0.24 0.24 99 1011.8
20260508214233 61 0.0 0.0 0.02 0.24 0.24 99 1011.6
20260508213731 61 0.0 0.0 0.02 0.24 0.24 99 1011.3
20260508213230 61 0.0 0.0 0.02 0.24 0.24 99 1011.4
20260508212727 61 0.0 0.0 0.02 0.24 0.24 99 1011.2
20260508212226 61 0.0 0.0 0.02 0.24 0.24 99 1011.3
20260508211724 61 0.0 0.0 0.02 0.24 0.24 99 1010.8
20260508211222 61 0.0 0.0 0.01 0.23 0.23 99 1011.0
20260508210720 61 0.0 0.0 0.01 0.23 0.23 99 1011.3
20260508210218 61 0.0 0.0 0.01 0.23 0.23 99 1011.5
20260508205716 61 0.0 0.0 0.00 0.22 0.22 99 1012.0
20260508205214 61 0.0 0.0 0.00 0.22 0.22 99 1012.4
20260508204712 61 0.0 0.0 0.00 0.22 0.22 99 1012.4
20260508204211 61 0.0 0.0 0.00 0.22 0.22 99 1012.3
20260508203709 61 0.0 0.0 0.00 0.22 0.22 99 1012.3
20260508203207 61 0.0 0.0 0.00 0.22 0.22 99 1012.2
20260508202705 61 0.0 0.0 0.01 0.22 0.22 99 1012.1
20260508202203 61 0.0 0.0 0.01 0.22 0.22 99 1012.2
20260508201702 61 0.0 0.0 0.01 0.22 0.22 99 1012.3
20260508201200 61 0.0 0.0 0.01 0.22 0.22 99 1012.3
20260508200659 61 0.0 0.0 0.02 0.22 0.22 99 1012.1
20260508200157 61 0.0 0.0 0.02 0.22 0.22 99 1011.7
20260508195655 61 0.0 0.0 0.03 0.22 0.22 99 1011.6
20260508195153 61 0.0 0.0 0.03 0.22 0.22 99 1011.3
20260508194651 61 0.0 0.0 0.04 0.22 0.22 99 1011.3
20260508194149 61 0.0 0.0 0.04 0.22 0.22 99 1011.3
20260508193648 61 0.0 0.0 0.05 0.22 0.22 99 1011.1
20260508193145 61 0.0 0.0 0.05 0.22 0.22 99 1011.0
20260508192643 62 0.0 0.0 0.07 0.22 0.22 99 1011.5
20260508192141 62 0.0 0.0 0.06 0.21 0.21 99 1012.6
20260508191640 62 0.0 0.0 0.06 0.21 0.21 99 1013.2
20260508191138 62 0.0 0.0 0.06 0.21 0.21 99 1013.5
20260508190636 62 0.0 0.0 0.06 0.20 0.20 99 1013.6
20260508190134 62 0.0 0.0 0.06 0.20 0.20 99 1013.7
20260508185632 62 0.0 0.0 0.05 0.19 0.19 99 1013.8
20260508185130 61 0.0 0.0 0.05 0.19 0.19 99 1013.8
20260508184629 62 0.0 0.0 0.05 0.19 0.19 99 1013.8
20260508184127 62 0.0 0.0 0.04 0.18 0.18 99 1013.9
20260508183625 61 0.0 0.0 0.03 0.17 0.17 99 1013.7
20260508183124 62 0.0 0.0 0.03 0.17 0.17 99 1013.8
20260508182622 62 0.0 0.0 0.02 0.16 0.16 99 1013.9
20260508182120 62 0.0 0.0 0.02 0.16 0.16 99 1013.8
20260508181618 62 0.0 0.0 0.02 0.15 0.15 99 1013.8
20260508181116 62 0.0 0.0 0.02 0.15 0.15 99 1013.9
20260508180615 62 0.0 0.0 0.01 0.14 0.14 99 1014.0
20260508180113 62 0.0 0.0 0.01 0.14 0.14 99 1013.8
20260508175611 62 0.0 0.0 0.03 0.14 0.14 99 1013.8
20260508175109 62 0.0 0.0 0.03 0.14 0.14 99 1013.7
20260508174607 62 0.0 0.0 0.05 0.14 0.14 99 1013.6
20260508174105 62 0.0 0.0 0.05 0.14 0.14 99 1013.5
20260508173603 62 0.0 0.0 0.07 0.14 0.14 99 1013.3
20260508173101 62 0.0 0.0 0.07 0.14 0.14 99 1013.1
20260508172600 62 0.0 0.0 0.08 0.14 0.14 99 1013.1
20260508172058 62 0.0 0.0 0.08 0.14 0.14 99 1013.1
20260508171556 62 0.0 0.0 0.09 0.13 0.13 99 1013.2
20260508171055 62 0.0 0.0 0.09 0.13 0.13 99 1013.1
20260508170553 62 0.0 0.0 0.11 0.13 0.13 99 1013.3
20260508170052 61 0.0 0.0 0.11 0.13 0.13 99 1013.6
20260508165550 61 0.0 0.0 0.11 0.12 0.12 99 1013.8
20260508165048 61 0.0 0.0 0.10 0.11 0.11 99 1013.9
20260508164546 61 0.0 0.0 0.10 0.11 0.11 99 1013.9
20260508164044 61 0.0 0.0 0.09 0.10 0.10 99 1013.9
20260508163542 62 0.0 0.0 0.08 0.09 0.09 99 1014.1
20260508163040 62 0.0 0.0 0.07 0.08 0.08 99 1014.1
20260508162539 62 0.0 0.0 0.07 0.07 0.07 99 1014.1
20260508162036 62 0.0 0.0 0.06 0.06 0.06 99 1014.2
20260508161535 62 0.0 0.0 0.05 0.05 0.05 99 1014.1
20260508161033 62 0.0 0.0 0.04 0.04 0.04 99 1013.9
20260508160531 62 0.0 0.0 0.03 0.03 0.03 99 1013.9
20260508160029 63 0.0 0.0 0.02 0.02 0.02 99 1013.9
20260508155527 63 0.0 0.0 0.01 0.01 0.01 99 1013.9
20260508155026 64 0.0 0.0 0.01 0.01 0.01 99 1013.9
20260508154524 64 0.0 0.0 0.01 0.01 0.01 99 1013.9
20260508154022 64 0.0 0.0 0.01 0.01 0.01 99 1013.8
20260508153520 64 0.0 0.0 0.01 0.01 0.01 99 1013.8
20260508153019 64 0.0 0.0 0.01 0.01 0.01 99 1013.7
20260508152517 64 0.0 0.0 0.00 0.00 0.00 99 1013.6
20260508152015 64 0.0 0.0 0.00 0.00 0.00 99 1013.6
20260508151513 64 0.0 0.0 0.00 0.00 0.00 99 1013.7
20260508151012 64 0.0 0.0 0.00 0.00 0.00 99 1013.6
20260508150510 64 0.0 0.0 0.00 0.00 0.00 99 1013.7
20260508150008 64 0.0 0.0 0.00 0.00 0.00 99 1013.7
20260508145506 64 0.0 0.0 0.00 0.00 0.00 99 1013.7
20260508145005 64 0.0 0.0 0.00 0.00 0.00 99 1014.0
20260508144503 65 0.0 0.0 0.00 0.00 0.00 99 1014.1
20260508144000 65 0.0 0.0 0.00 0.00 0.00 99 1014.4
20260508143459 66 0.0 0.0 0.00 0.00 0.00 99 1014.6
20260508142957 67 0.0 0.0 0.00 0.00 0.00 94 1014.6
20260508142455 67 0.0 0.0 0.00 0.00 0.00 92 1014.6
20260508141954 67 0.0 0.0 0.00 0.00 0.00 92 1014.8
20260508141452 67 0.0 0.0 0.00 0.00 0.00 90 1015.0
20260508140950 68 0.0 0.0 0.00 0.00 0.00 90 1015.0
20260508140448 68 0.0 0.0 0.00 0.00 0.00 89 1015.1
20260508135946 68 0.0 0.0 0.00 0.00 0.00 88 1014.9
20260508135444 69 0.0 0.0 0.00 0.00 0.00 86 1015.0
20260508134942 69 0.0 0.0 0.00 0.00 0.00 85 1014.9
20260508134441 69 0.0 0.0 0.00 0.00 0.00 85 1015.0
20260508133938 69 0.0 0.0 0.00 0.00 0.00 86 1015.1
20260508133436 69 0.0 0.0 0.00 0.00 0.00 85 1015.0
20260508132934 69 0.0 0.0 0.00 0.00 0.00 87 1014.9